sat.trackr.live / text

‹ back to catalog

STARLINK-37087

NORAD 68250 · 2026-054U

PAYLOAD ACTIVE UNKNOWN

§ Identity

Operator
Country
US
Launch date
2026-03-17
Launch site
AFETR
Launch vehicle
Mass (kg)
RCS (m²)

Purposes: comms

External: N2YO · Heavens-Above · Gunter

§ Orbital elements

Epoch: 2026-09-19T23:59:16.267776Z

Period
93.85 min
Inclination
53.1577°
Eccentricity
0.0000878
Mean motion
15.34413872 rev/d
Perigee alt
462.1 km
Apogee alt
463.3 km
Semi-major
6,840.8 km
B*
4.9190e-4
RAAN
104.2395°
Arg perigee
57.6222°
Mean anomaly
302.4865°
Rev number
2,888

§ Raw data

STARLINK-370871 68250U 26054U   26262.99949384  .00016287  00000+0  49190-3 0  99902 68250  53.1577 104.2395 0000878  57.6222 302.4865 15.34413872 28884

JSON: /api/v1/satellites/68250 · /tle

For live sub-satellite position, see the globe view (requires WebGL).

§ Visibility from observer

Set your observer location to see the next 7 days of passes ≥ 10°. The values pass through the URL so the page stays shareable.

No JS? Fill the form by hand. The geolocation button needs JavaScript.